Tracking 29892 objects as of 21-Nov-2024
HD Live streaming from Space Station
objects crossing your sky now

QIANFAN-33

Track QIANFAN-33 now!
10-day predictions


NORAD ID: 61566
Int'l Code: 2024-185Q
Perigee: 807.0 km
Apogee: 822.6 km
Inclination: 89.0 °
Period: 101.0 minutes
Semi major axis: 7185 km
RCS: Unknown
Launch date: October 15, 2024
Source: People's Republic of China (PRC)
Launch site: Taiyaun Space Center, China (TSC)
Your satellite tracking list
Your tracking list is empty




NASA's NSSDC Master Catalog

Two Line Element Set (TLE):
1 61566U 24185Q   24326.13633540  .00000865  00000-0  36182-3 0  9998
2 61566  88.9884 122.0954 0010873 110.6795 249.5565 14.25251401 15021
Source of the keplerian elements: AFSPC